Buger, Spain

7:54 AM CEST on July 21, 2017 (GMT +0200)
Buger

Weather History for 08306 - February, 2013

Change the Weather History Date:

Saturday, February 23, 2013

  Actual Average Record
Temperature  
Mean Temperature 47 °F -  
Max Temperature 53 °F 61 °F - ()
Min Temperature 41 °F 41 °F - ()
Degree Days  
Heating Degree Days 18    
Moisture  
Dew Point 40 °F    
Average Humidity 77    
Maximum Humidity 94    
Minimum Humidity 56    
Precipitation  
Precipitation 0.03 in 0.05 in - ()
Sea Level Pressure  
Sea Level Pressure 29.60 in    
Wind  
Wind Speed 8 mph ()    
Max Wind Speed 26 mph    
Max Gust Speed 31 mph    
Visibility 6.0 miles    
Events Rain    
T = Trace of Precipitation, MM = Missing Value Source: Averaged Metar Reports

Daily Weather History Graph

Daily Weather History Graph

Search for Another Location

Airport or City:

Trip Planner

Search our weather history database for the weather conditions in past years. The results will help you decide how hot, cold, wet, or windy it might be!

Date:

Astronomy

Feb. 23, 2013 Rise Set
Actual Time 7:30 AM CET 6:34 PM CET
Civil Twilight 7:03 AM CET 7:01 PM CET
Nautical Twilight 6:32 AM CET 7:33 PM CET
Astronomical Twilight 6:01 AM CET 8:04 PM CET
Moon 4:30 PM CET (2/23) 5:43 AM CET (2/23)
Length of Visible Light 11h 58m
Length of Day
11h 04m
Waxing Gibbous, 94% of the Moon is Illuminated
Feb 23
Waxing Gibbous
Feb 25
Full
Mar 4
Last Quarter
Mar 11
New
Mar 19
First Quarter

Hourly Weather History & Observations

Time (CET) Temp. Windchill Dew Point Humidity Pressure Visibility Wind Dir Wind Speed Gust Speed Precip Events Conditions
12:00 AM 51.8 °F - 50.0 °F 94% 29.50 in 5.6 mi Variable 2.3 mph - N/A   Mostly Cloudy
12:20 AM 51.8 °F - 50.0 °F 94% 29.50 in 1.9 mi Variable 2.3 mph - N/A Rain Heavy Rain
12:30 AM 51.8 °F - 50.0 °F 94% 29.47 in 1.9 mi NNE 6.9 mph - N/A Rain Rain
12:32 AM 51.8 °F - 50.0 °F 94% 29.47 in 3.7 mi North 8.1 mph - N/A Rain Light Rain
1:00 AM 51 °F - 48 °F 87% 29.46 in 6 mi East 6.9 mph - - Rain Light Rain
1:00 AM 51.8 °F - 50.0 °F 94% 29.44 in 5.6 mi ENE 6.9 mph - N/A Rain Light Rain
1:30 AM 51.8 °F - 50.0 °F 94% 29.44 in 6.2 mi East 3.5 mph - N/A   Scattered Clouds
2:00 AM 51.8 °F - 50.0 °F 94% 29.44 in 6.2 mi North 3.5 mph - N/A   Mostly Cloudy
2:30 AM 51.8 °F - 50.0 °F 94% 29.42 in 6.2 mi Variable 2.3 mph - N/A   Mostly Cloudy
3:00 AM 51.8 °F - 50.0 °F 94% 29.42 in 6.2 mi Calm Calm - N/A   Mostly Cloudy
3:30 AM 51.8 °F - 50.0 °F 94% 29.39 in 6.2 mi Calm Calm - N/A   Mostly Cloudy
4:00 AM 51.8 °F - 50.0 °F 94% 29.39 in 6.2 mi Variable 1.2 mph - N/A   Mostly Cloudy
4:30 AM 53.6 °F - 46.4 °F 77% 29.36 in 6.2 mi West 15.0 mph - N/A   Scattered Clouds
5:00 AM 55.4 °F - 44.6 °F 67% 29.36 in 6.2 mi West 19.6 mph - N/A   Scattered Clouds
5:30 AM 55.4 °F - 46.4 °F 72% 29.36 in 6.2 mi West 19.6 mph 31.1 mph N/A   Scattered Clouds
6:00 AM 53.6 °F - 44.6 °F 72% 29.36 in 6.2 mi West 13.8 mph 25.3 mph N/A   Scattered Clouds
6:30 AM 53.6 °F - 44.6 °F 72% 29.39 in 6.2 mi West 12.7 mph - N/A   Mostly Cloudy
7:00 AM 51 °F - 42 °F 61% 29.40 in 9 mi West 13.8 mph - -   Partly Cloudy
7:00 AM 53.6 °F - 44.6 °F 72% 29.39 in 6.2 mi West 11.5 mph - N/A   Scattered Clouds
7:30 AM 51.8 °F - 46.4 °F 82% 29.42 in 6.2 mi NW 13.8 mph - N/A Rain Light Rain
8:00 AM 50.0 °F - 42.8 °F 76% 29.44 in 6.2 mi NNW 12.7 mph - N/A   Mostly Cloudy
8:30 AM 48.2 °F - 39.2 °F 71% 29.50 in 6.2 mi NNE 26.5 mph - N/A   Scattered Clouds
9:00 AM 46.4 °F 40.4 °F 39.2 °F 76% 29.53 in 6.2 mi ENE 13.8 mph - N/A   Scattered Clouds
9:30 AM 44.6 °F 36.9 °F 37.4 °F 76% 29.56 in 6.2 mi ENE 18.4 mph 31.1 mph N/A   Scattered Clouds
10:00 AM 44.6 °F 37.2 °F 37.4 °F 76% 29.59 in 6.2 mi ENE 17.3 mph - N/A   Scattered Clouds
10:30 AM 44.6 °F 36.6 °F 37.4 °F 76% 29.59 in 6.2 mi ENE 19.6 mph - N/A   Scattered Clouds
11:00 AM 44.6 °F 36.9 °F 37.4 °F 76% 29.62 in 6.2 mi ENE 18.4 mph - N/A   Scattered Clouds
11:30 AM 44.6 °F 36.6 °F 37.4 °F 76% 29.65 in 6.2 mi NE 19.6 mph - N/A   Mostly Cloudy
12:00 PM 44.6 °F 36.9 °F 37.4 °F 76% 29.65 in 6.2 mi NE 18.4 mph - N/A   Mostly Cloudy
12:30 PM 42.8 °F 34.5 °F 37.4 °F 81% 29.68 in 6.2 mi NE 18.4 mph - N/A   Mostly Cloudy
1:00 PM 43 °F - 33 °F 56% 29.68 in 11 mi ENE 16.1 mph - -   Partly Cloudy
1:00 PM 44.6 °F 38.4 °F 35.6 °F 71% 29.68 in 6.2 mi ENE 12.7 mph - N/A   Mostly Cloudy
1:30 PM 44.6 °F 37.8 °F 35.6 °F 71% 29.65 in 6.2 mi ENE 15.0 mph - N/A   Mostly Cloudy
2:00 PM 44.6 °F 38.8 °F 35.6 °F 71% 29.68 in 6.2 mi ENE 11.5 mph - N/A   Mostly Cloudy
2:30 PM 44.6 °F 39.2 °F 35.6 °F 71% 29.68 in 6.2 mi ENE 10.4 mph - N/A   Mostly Cloudy
3:00 PM 44.6 °F 40.2 °F 37.4 °F 76% 29.68 in 4.3 mi NNE 8.1 mph - N/A Rain Light Rain
3:01 PM 42.8 °F 37.5 °F 37.4 °F 81% 29.71 in 1.9 mi North 9.2 mph - N/A Rain Rain
3:30 PM 41.0 °F 35.8 °F 37.4 °F 87% 29.71 in 3.7 mi NNW 8.1 mph - N/A Rain Light Rain
4:00 PM 42.8 °F - 39.2 °F 87% 29.71 in 6.2 mi Variable 1.2 mph - N/A   Scattered Clouds
4:30 PM 42.8 °F - 37.4 °F 81% 29.71 in 6.2 mi Variable 1.2 mph - N/A Rain Light Rain
5:00 PM 42.8 °F - 37.4 °F 81% 29.74 in 6.2 mi Variable 1.2 mph - N/A   Mostly Cloudy
5:30 PM 44.6 °F - 37.4 °F 76% 29.74 in 5.6 mi Calm Calm - N/A Rain Light Rain
6:00 PM 44.6 °F - 37.4 °F 76% 29.74 in 6.2 mi Calm Calm - N/A   Mostly Cloudy
6:30 PM 44.6 °F - 37.4 °F 76% 29.77 in 6.2 mi South 1.2 mph - N/A   Mostly Cloudy
7:00 PM 43 °F - 33 °F 56% 29.79 in 7 mi Calm Calm - -   Partly Cloudy
7:00 PM 44.6 °F - 35.6 °F 71% 29.77 in 6.2 mi Variable 2.3 mph - N/A   Mostly Cloudy
7:30 PM 44.6 °F - 35.6 °F 71% 29.80 in 6.2 mi Variable 2.3 mph - N/A   Mostly Cloudy
8:00 PM 44.6 °F - 33.8 °F 66% 29.83 in 6.2 mi Variable 1.2 mph - N/A   Scattered Clouds
8:30 PM 42.8 °F - 32.0 °F 66% 29.83 in 6.2 mi Variable 1.2 mph - N/A   Partly Cloudy
9:00 PM 44.6 °F - 32.0 °F 61% 29.83 in 6.2 mi NNW 1.2 mph - N/A   Partly Cloudy
9:30 PM 46.4 °F 41.9 °F 32.0 °F 57% 29.86 in 6.2 mi WNW 9.2 mph - N/A   Scattered Clouds
10:00 PM 44.6 °F 39.2 °F 32.0 °F 61% 29.86 in 6.2 mi NW 10.4 mph - N/A Rain Light Rain
10:30 PM 44.6 °F 38.4 °F 32.0 °F 61% 29.86 in 6.2 mi WNW 12.7 mph - N/A   Scattered Clouds
11:00 PM 44.6 °F 39.7 °F 32.0 °F 61% 29.86 in 6.2 mi WNW 9.2 mph - N/A   Scattered Clouds
11:30 PM 44.6 °F 38.8 °F 32.0 °F 61% 29.86 in 6.2 mi WNW 11.5 mph - N/A   Scattered Clouds